Regional Weather Roundup
Issued by NWS Wakefield, VA

Home | Current Version | Previous Version | Graphics & Text | Print | Product List | Glossary On
Versions: 1 2 3 4 5 6 7 8 9 10 11 12 13 14 15 16 17 18 19 20 21 22 23 24 25 26 27 28 29 30 31 32 33 34 35 36 37 38 39 40 41 42 43 44 45 46 47 48 49 50
858
ASUS41 KAKQ 281616
RWRAKQ

REGIONAL WEATHER ROUNDUP
NATIONAL WEATHER SERVICE WAKEFIELD VA
1200 PM EDT WED JUN 28 2017

Note: "fair" indicates few or no clouds below 12,000 feet with no
significant weather and/or obstructions to visibility. * = Denotes
station may not report precipitation (e.g., rain,snow,etc.),
thunder or fog.

VAZ042-051-052>054-056-281700-
NORTHERN VIRGINIA

CITY           SKY/WX    TMP DP  RH WIND       PRES   REMARKS
WASH NATIONAL  MOSUNNY   77  43  29 N12       30.20F
DULLES         MOSUNNY   76  45  33 NW9       30.20F
FORT BELVOIR   SUNNY     78  47  34 W7        30.19F
QUANTICO       MOSUNNY   78  47  33 CALM      30.20F
FREDERICKSBRG* SUNNY     76  50  39 CALM      30.20S
STAFFORD*      SUNNY     76  47  36 W5        30.24S
WARRENTON      MOSUNNY   78  44  29 N5        30.20F
CULPEPER*      MOSUNNY   76  53  44 N5        30.20F
MANASSAS*      MOSUNNY   76  51  41 S3        30.20F
LEESBURG*      MOSUNNY   77  50  38 W8        30.21S
WINCHESTER     MOSUNNY   70  43  37 NW6       30.20F
FRONT ROYAL*   PTSUNNY   73  48  40 CALM      30.19F
LURAY*         MOSUNNY   73  52  46 CALM      30.21S
$$

VAZ048-049-060>072-079>083-281700-
CENTRAL AND SOUTH CENTRAL VIRGINIA

CITY           SKY/WX    TMP DP  RH WIND       PRES   REMARKS
RICHMOND       MOSUNNY   76  51  41 VRB3      30.21S
CHESTERFIELD*  NOT AVBL
PETERSBURG*    SUNNY     76  44  32 CALM      30.22S
HANOVER        SUNNY     76  50  40 VRB6      30.22F
TAPPAHANNOCK*  SUNNY     77  41  27 N7        30.21F
QUINTON*       FAIR      74  50  42 N6        30.21S
CHARLOTTSVILLE SUNNY     76  48  37 VRB5      30.20F
GORDONSVILLE*  SUNNY     75  47  37 CALM      30.20F
ORANGE*        SUNNY     73  50  43 CALM      30.21S
LOUISA*        SUNNY     79  50  36 N3        30.20F
BUMPASS*       FAIR      74  52  46 W8        30.21F
FARMVILLE*     MOSUNNY   76  42  29 SE3       30.21F
CREWE*         FAIR      75  44  32 CALM      30.22F
FORT PICKETT*  FAIR     N/A N/A N/A NE3       30.22F
CHASE CITY*    FAIR      75  51  42 CALM      30.22F
CLARKSVILLE*   FAIR      73  52  46 CALM      30.23F
SOUTH HILL*    SUNNY     75  52  44 CALM      30.28S
LAWRENCEVILLE* FAIR      75  49  40 SE6       30.22F
EMPORIA*       SUNNY     75  46  35 NW5       30.23S
$$

VAZ088>098-281700-
SOUTHEAST VIRGINIA

CITY           SKY/WX    TMP DP  RH WIND       PRES   REMARKS
NORFOLK        SUNNY     77  53  43 CALM      30.20R
VIRGINIA BEACH MOSUNNY   75  50  41 E6        30.20R
NORFOLK NAVAL  MOSUNNY   80  54  40 NE8       30.22R
WEST POINT*    SUNNY     77  44  31 W3        30.22S
SALUDA*        FAIR      75  52  44 N3        30.20S
NEWPORT NEWS   MOSUNNY   77  56  48 E9        30.21R
LANGLEY AFB    MOSUNNY   76  56  51 E10       30.20R
FORT EUSTIS    SUNNY     81  52  37 N6        30.18R
WILLIAMSBURG*  SUNNY     81  52  36 CALM      30.21S
HR EXEC AP*    FAIR      79  55  44 E5        30.19R
FRANKLIN*      MOSUNNY   77  54  44 NW3       30.22R
US460-WAKEFLD  SUNNY     78  52  40 VRB3      30.21R
$$

VAZ020-022-025-037-045-281700-
WEST CENTRAL AND SOUTHWEST VIRGINIA

CITY           SKY/WX    TMP DP  RH WIND       PRES   REMARKS
STAUNTON*      SUNNY     70  47  43 CALM      30.25S
WAYNESBORO*    SUNNY     71  47  42 W5        30.24S
HOT SPRINGS VA SUNNY     61  34  36 NW5       30.31R
LYNCHBURG      SUNNY     74  49  41 VRB3      30.23F
DANVILLE       SUNNY     75  53  46 CALM      30.24F
SOUTH BOSTON*  FAIR      75  51  42 NW3       30.23S
MARTINSVILLE   SUNNY     74  51  43 E3        30.26F
ROANOKE        MOSUNNY   74  49  41 VRB5      30.26S
BLACKSBURG     SUNNY     70  50  48 W5        30.30S
DUBLIN*        SUNNY     72  41  32 CALM      30.28S
MARION*        SUNNY     73  45  37 W6        30.29F
HILLSVILLE*    SUNNY     69  42  37 W3        30.28R
RICHLANDS*     FAIR      70   6   8 W3        30.28R
WISE*          MOSUNNY   72  50  46 CALM      30.27F
ABINGDON*      SUNNY     76  52  43 SE5       30.25S
$$

MDZ021>025-VAZ099-100-281700-
SOUTHERN MARYLAND AND THE DELMARVA PENINSULA

CITY           SKY/WX    TMP DP  RH WIND       PRES   REMARKS
PATUXENT RIVER MOSUNNY   75  47  36 CALM      30.19F
BAY BRIDGE APT SUNNY     75  48  38 SW6       30.19F
LEONARDTOWN    SUNNY     73  46  38 N5        30.21F
DOVER          SUNNY     75  52  45 W9        30.17S
GEORGETOWN     SUNNY     76  44  32 NW9       30.19S
EASTON         SUNNY     75  45  33 NW6       30.22F
CAMBRIDGE      SUNNY     75  50  41 N5        30.19F
SALISBURY      SUNNY     76  46  34 W8        30.18S
OCEAN CITY     SUNNY     76  49  38 NW5       30.19R
WALLOPS ISLAND SUNNY     76  49  38 N9        30.20R
ACCOMACK*      SUNNY     76  46  34 NW7       30.21R
$$

NCZ012>017-030>032-281700-
NORTH CENTRAL AND EASTERN NORTH CAROLINA

CITY           SKY/WX    TMP DP  RH WIND       PRES   REMARKS
ROANOKE RAPIDS FAIR      77  52  41 CALM      30.23R
RALEIGH        MOSUNNY   79  52  38 VRB6      30.23S
ELIZABETH CITY SUNNY     78  58  49 NE8       30.20R
AHOSKIE*         N/A     75  55  49 CALM      30.21S
EDENTON*       SUNNY     79  62  55 CALM      30.20R
CURRITUCK*     SUNNY     76  56  49 NE9       30.21R
KILL DEVIL HLS SUNNY     75  60  59 NE9       30.19R
MANTEO         SUNNY     75  61  62 NE13      30.20R
CAPE HATTERAS  NOT AVBL
TARBORO*       NOT AVBL
GOLDSBORO      SUNNY     80  55  42 E3        30.20R
WASHINGTON     SUNNY    N/A N/A N/A E5        30.20R
GREENVILLE     SUNNY     81  55  41 NE6       30.21R
NEW BERN       SUNNY     80  58  46 NE8       30.20R
WILMINGTON     SUNNY     83  55  38 N8        30.18S
$$

VAZ048-281700-
ELSEWHERE

CITY           SKY/WX    TMP DP  RH WIND       PRES   REMARKS
HARRISBURG PA  MOSUNNY   74  48  39 NW6       30.18S
BALTIMORE      MOSUNNY   76  47  35 VRB7      30.18F
ANNAPOLIS      SUNNY     73  50  44 NW8       30.18F
ANDREWS AFB    SUNNY     76  42  29 CALM      30.18F
PHILADELPHIA   MOSUNNY   74  43  32 NW9G18    30.17S
HENDERSON NC   SUNNY     73  50  45 NE3       30.24S
GREENSBORO     MOSUNNY   76  56  49 E8        30.22F
ROCKY MOUNT    SUNNY     79  56  45 NE3       30.23R
$$

VAZ100-281700-
MARINE

STATION/POSITION TIME  TEMP    WIND        PRES    WAVE   SWELL
                       AIR SEA DIR/SP/G            HT/PER HT/PER
                 (UTC) (F)     (DEG/KT/KT) (MB)    (FT/S) (FT/S)
BRANDYWINE LGT   1548          330/  6/  9   N/A
CAPE MAY NJ      1548   74 67  330/  3/  7 1021.7S
LEWES DE         1548   69 71   10/  7/  8 1022.1S
15NM E FENWICK I 1550   68 68  330/  6/  8 1022.6R   1/ 9   2/ 9
OCEAN-CITY-INLET 1548   71 66   90/  8/ 12 1022.3S
WACHAPREAGUE VA  1548   77 75  260/  3/ 12 1022.6R
THOMAS POINT MD  1600   71 77   80/  4/  6   N/A
GOOSES REEF MD   1600   71 78   40/  4/  6 1023.3
COVE POINT MD    1548   71      10/  6/  7 1023.3F
SOLOMONS ISLAND  1548   75 79  260/  6/  8   N/A
BISHOPS HEAD MD  1548   72 76  280/ 10/ 12 1022.6S
PINEY POINT MD   1548          310/  8/  9   N/A
POTOMAC MD       1600   72 79  210/  2/  4 1021.9    0
CAMBRIDGE MD     1548   75 81              1023.1F
LEWISETTA VA     1548   72 78   10/  4/  5 1022.7S
RAPPAHANNOCK LGT 1548           20/  8/ 10 1023.5R
STINGRAY PT      1600   72 79   70/  8/ 12 1022.8    1/ 2
YORK RVR RNG VA  1548   73      90/ 10/ 12 1023.1R
YORKTOWN VA      1548   74 78  100/  7/  9 1022.4R
JAMESTOWN VA     1600   75 82  300/  4/  6   N/A     0
DOMINION TERM VA 1548   74      80/ 10/ 12 1023.0R
KIPTOPEKE VA     1548      75  320/ 11/ 12   N/A
CHES BAY BRIDGE  1548   71 75   90/  7/  9 1022.7R
CAPE HENRY VA    1548   69      50/  9/ 10   N/A
WILLOUBY STN VA  1548   72      40/  8/ 10 1022.8R
S CRANEY ISL VA  1548   73      20/  6/ 10 1022.6R
CAPE HENRY BUOY  1600      72                N/A     2/ 4
1ST LANDING BUOY 1600   71 76              1022.8    1/ 3
CAPE CHARLES BUO 1551      71                N/A     2/ 4
64NM E OF VA BCH 1550   71 74   30/ 10/ 12 1022.5R   3/ 4   2/ 9
DUCK PIER NC     1548   72 74   50/  8/ 10 1022.3R
44100 DUCK FRF   1505      72                N/A     3/ 4
OREGON INLET NC  1548           40/ 11/ 13   N/A
HATTERAS NC      1548   76 78   20/ 10/ 12 1021.7R
DIAMOND SHLS NC  1550   77 81   10/ 10/ 12 1021.3R   2/ 7   2/ 7
CAPE LOOKOUT NC  1600   78      50/ 10/ 11 1021.6R
$$




USA.gov is the U.S. government's official web portal to all federal, state and local government web resources and services.